Temp
57 57 57 57 57 57 57 57 57 57 57 58 58 59 59 59 58 56 58 66 61 55 57 64 64 58 59 60 54 60 59 62 59 55 57 56 57 57 56 59 61 61 59 62 60 56 56 83 82 70 74 80 81 83
57 57 57 57 57 57 57 56 56 57 57 58 58 58 58 58 58 57 57 64 67 58 58 66 66 69 67 67 61 60 58 57 59 54 55 56 53 55 53 51 66 57 60 57 63 64 70 72 75 77 78 80 78 76
57 57 57 57 57 56 57 56 56 56 57 57 58 58 58 58 58 57 55 60 61 57 59 62 66 74 77 75 76 57 60 66 62 63 55 54 49 56 49 53 57 62 67 60 61 68 67 73 75 76 77 76 77 77
57 57 57 56 56 56 57 56 56 56 57 57 57 58 58 57 57 57 54 59 58 58 50 59 74 66 74 74 74 74 70 71 70 61 55 53 52 59 54 57 56 61 62 59 61 65 68 70 71 75 76 78 79 81
56 56 56 56 56 56 56 56 56 56 56 57 57 57 57 57 56 56 57 60 65 57 50 53 63 69 73 75 73 73 70 68 60 56 56 54 59 58 60 59 56 63 60 57 56 65 61 65 71 75 75 76 78 79
56 56 56 56 56 56 56 56 56 56 56 56 57 57 57 56 56 57 57 63 63 63 52 45 62 63 70 73 71 69 68 66 63 60 57 60 65 58 52 51 59 65 69 70 64 71 71 72 75 77 76 77 80 80
55 55 55 56 56 56 56 55 56 56 56 56 56 56 56 55 55 52 50 56 56 58 52 47 51 65 71 71 70 68 69 65 63 61 60 61 61 60 55 49 60 64 67 68 71 71 68 70 68 75 77 78 78 82
55 55 55 55 54 55 55 55 56 56 56 56 55 55 55 55 54 51 59 56 57 55 53 43 47 57 72 61 58 65 60 60 58 58 59 58 59 58 52 58 60 63 67 67 69 72 72 74 73 73 76 75 71 74
55 54 54 54 54 54 55 55 56 55 55 55 55 55 54 53 54 57 61 59 59 55 45 45 42 49 66 61 60 58 58 50 59 54 57 58 54 48 46 49 50 54 54 56 59 64 68 71 69 70 75 72 68 72
54 54 54 54 54 54 55 55 55 55 55 55 53 54 50 56 60 60 56 50 48 48 50 42 52 48 58 57 52 49 53 48 45 53 57 54 48 53 52 53 53 54 55 56 53 54 60 61 65 67 69 71 69 71
54 54 53 54 54 54 54 55 55 55 55 53 51 50 57 59 57 54 48 45 44 40 44 46 50 50 61 50 47 48 44 45 40 50 48 47 45 48 51 53 54 55 55 56 56 58 61 63 65 66 70 69 71 71
53 53 53 54 54 54 54 54 55 53 53 51 52 56 58 55 50 45 44 48 46 44 49 48 54 56 56 56 49 45 41 42 38 50 46 43 48 49 51 53 54 56 56 56 57 57 60 63 67 68 68 68 69 72
53 53 53 53 53 54 54 54 55 55 54 56 52 51 50 49 37 39 39 44 47 52 55 55 53 58 55 54 49 45 39 39 48 42 41 48 50 52 52 52 52 54 55 56 57 59 60 63 66 67 67 67 71 68
53 53 53 53 53 53 54 54 55 54 51 48 45 35 42 42 45 45 47 52 56 57 57 57 56 55 53 48 47 40 44 44 40 39 41 49 51 52 52 52 52 51 53 54 55 57 59 60 63 66 66 68 68 65
52 53 52 53 53 54 54 54 54 55 50 45 47 37 44 51 55 57 59 58 60 61 59 57 57 56 49 45 44 42 40 39 41 43 47 54 53 52 52 52 51 51 51 52 54 55 57 59 60 61 64 67 66 65
52 52 51 53 54 54 54 54 53 54 50 48 48 45 51 51 54 57 60 58 63 61 61 58 53 48 46 45 41 40 42 42 44 49 52 53 53 53 52 52 52 52 52 53 54 56 57 57 58 59 63 66 65 65
52 50 53 54 54 54 53 53 51 48 48 48 47 54 52 52 53 58 60 60 63 58 53 54 47 46 50 44 44 48 44 47 51 55 53 54 53 52 52 53 53 53 53 54 55 56 57 59 60 60 63 65 64 65
50 55 55 54 54 53 52 50 48 46 43 48 46 50 54 59 57 59 62 62 59 57 56 51 54 48 45 44 47 53 56 58 59 57 53 55 55 53 53 52 53 53 53 54 55 56 58 59 60 62 64 65 65 65
58 57 54 54 56 54 48 48 50 44 48 52 54 56 57 59 61 62 63 62 62 62 57 53 48 47 48 53 51 55 56 57 55 56 58 56 55 54 54 53 53 53 54 55 56 56 59 62 64 65 65 64 64 65
55 54 54 55 57 50 47 47 54 48 47 53 56 55 58 59 61 62 62 60 59 54 50 50 50 54 54 57 59 58 58 59 57 54 54 54 55 55 53 53 52 53 54 55 57 54 59 60 64 66 68 64 65 65
55 54 55 55 52 52 50 50 49 51 52 52 56 57 57 60 58 59 59 61 54 53 51 56 57 59 61 61 61 61 59 57 53 53 52 52 54 54 53 53 54 54 53 54 57 59 56 61 63 65 66 66 66 66
53 56 54 54 49 51 50 55 51 54 52 53 54 56 54 53 56 53 59 56 54 52 53 54 55 57 56 56 58 57 57 57 56 56 52 53 52 52 52 53 53 53 53 55 57 59 64 63 64 67 66 67 66 71
54 56 52 53 47 44 42 56 48 50 47 50 55 51 53 51 53 62 53 57 57 58 61 59 59 59 57 60 60 61 58 57 56 56 54 54 54 54 54 54 54 53 53 55 58 59 62 59 61 65 66 66 70 71
55 51 47 47 48 41 53 48 51 51 50 49 48 49 52 52 56 53 49 53 54 56 57 56 57 55 56 56 55 56 56 57 58 56 56 54 52 53 54 54 54 55 55 57 59 61 65 66 61 65 65 65 67 69
41 42 44 35 50 47 46 47 48 49 47 50 48 49 50 52 47 49 49 54 57 54 55 56 56 55 54 54 55 56 59 56 54 54 55 54 54 54 53 54 54 56 57 56 57 61 64 61 62 64 67 66 66 68
35 46 39 48 48 47 50 47 49 49 50 49 50 55 52 50 48 45 52 55 55 55 58 57 54 54 54 55 54 55 59 59 56 54 55 56 55 53 52 52 52 54 56 56 57 62 63 62 64 65 64 60 52 66
37 47 52 57 56 55 54 56 57 53 49 48 51 51 51 45 46 52 56 58 56 60 62 54 53 53 54 55 56 58 60 58 55 56 58 57 57 56 54 52 52 55 56 55 56 61 62 63 65 64 64 64 64 66
50 55 50 54 55 59 53 52 52 51 52 56 56 50 48 50 50 60 64 63 64 68 66 60 57 58 57 58 58 57 58 62 59 58 58 58 57 56 56 56 56 49 56 55 54 64 65 64 63 63 64 64 62 63
52 58 57 52 56 56 55 53 52 56 60 59 51 52 55 63 67 62 65 66 70 68 65 61 59 57 59 61 59 57 58 61 56 52 51 50 51 52 55 55 56 58 58 57 51 50 56 61 61 60 62 62 62 64
55 62 56 56 53 51 56 61 60 62 64 61 61 65 64 66 70 67 66 66 65 65 66 64 64 63 62 57 58 57 57 60 55 52 50 49 50 52 54 54 56 57 57 57 56 57 52 59 56 60 61 61 60 60
63 62 57 57 55 60 63 67 67 68 67 66 67 64 64 64 68 71 68 67 66 66 65 65 64 65 62 59 61 59 58 62 57 56 54 55 54 53 53 55 56 57 57 56 56 56 56 56 57 58 58 58 58 58
60 58 58 55 57 63 64 62 61 61 62 62 63 64 65 63 58 64 68 69 66 65 59 61 65 63 68 68 67 64 54 65 62 60 59 57 56 55 53 54 56 57 57 56 56 56 56 56 56 56 57 58 59 59
61 62 61 59 59 57 62 61 59 58 60 59 59 60 61 58 54 58 67 69 68 67 65 66 69 70 68 67 67 66 55 64 54 46 46 44 43 49 55 54 55 56 58 57 56 56 56 56 55 56 56 57 57 58
MSLP
1027.73 1027.67 1027.68 1027.61 1027.44 1027.26 1027.13 1026.89 1026.64 1026.36 1025.97 1025.57 1025.26 1024.86 1024.33 1023.91 1023.50 1023.02 1021.50 1020.36 1020.02 1019.35 1017.26 1016.31 1016.05 1015.98 1015.29 1014.78 1014.31 1013.64 1012.99 1011.92 1011.06 1010.65 1010.21 1009.90 1008.85 1008.36 1007.25 1006.28 1005.24 1004.54 1003.92 1003.41 1002.78 1002.03 1000.96 999.25 999.04 999.73 999.87 998.08 996.73 996.82
1027.13 1027.18 1027.23 1027.30 1027.20 1027.02 1026.98 1026.87 1026.65 1026.39 1026.03 1025.66 1025.33 1025.02 1024.63 1024.19 1023.86 1023.54 1022.23 1021.37 1020.50 1019.98 1017.77 1016.49 1015.33 1014.70 1014.95 1014.81 1014.76 1014.22 1013.91 1013.75 1013.00 1012.75 1012.68 1012.01 1011.70 1010.83 1009.53 1008.15 1006.16 1006.27 1006.76 1006.25 1004.94 1003.18 1002.60 1001.52 1001.65 1001.36 1000.47 998.97 997.87 997.34
1026.37 1026.68 1026.74 1026.81 1026.93 1026.82 1026.66 1026.62 1026.48 1026.25 1025.98 1025.66 1025.32 1025.03 1024.70 1024.32 1024.05 1024.04 1023.20 1021.81 1020.59 1019.04 1017.06 1015.35 1014.30 1013.50 1013.36 1013.68 1013.55 1013.92 1013.76 1013.35 1013.30 1013.25 1013.70 1013.34 1012.70 1011.77 1011.05 1009.77 1008.83 1007.93 1007.18 1006.90 1005.93 1003.00 1003.05 1002.62 1002.16 1002.20 1001.30 1000.59 1000.10 999.18
1025.43 1026.01 1026.32 1026.43 1026.50 1026.48 1026.35 1026.23 1026.16 1025.97 1025.75 1025.54 1025.26 1024.95 1024.63 1024.24 1023.87 1023.76 1023.35 1022.08 1021.49 1020.09 1018.29 1014.90 1013.60 1014.12 1013.69 1013.36 1013.02 1012.90 1012.90 1012.88 1013.02 1013.31 1013.63 1013.58 1013.22 1012.24 1011.36 1010.70 1010.25 1009.88 1008.93 1007.79 1006.58 1005.38 1003.74 1002.00 1002.62 1003.00 1002.91 1001.67 1000.37 1000.04
1024.59 1024.96 1025.58 1025.94 1026.13 1026.14 1026.07 1026.02 1025.79 1025.59 1025.46 1025.31 1025.08 1024.74 1024.54 1024.24 1023.74 1023.11 1022.51 1021.60 1020.77 1020.43 1019.02 1016.98 1015.43 1013.68 1013.18 1012.40 1012.35 1012.16 1012.33 1012.47 1012.72 1013.04 1013.20 1013.03 1012.61 1012.20 1011.41 1010.85 1010.23 1010.10 1009.12 1008.31 1007.17 1006.92 1006.73 1005.41 1004.02 1003.40 1003.18 1002.33 1001.56 1002.01
1023.98 1024.18 1024.70 1025.18 1025.62 1025.81 1025.76 1025.72 1025.52 1025.24 1025.07 1025.00 1024.82 1024.55 1024.43 1024.15 1023.76 1022.93 1021.31 1021.15 1021.32 1020.78 1020.09 1018.28 1015.93 1013.85 1012.77 1012.08 1011.91 1011.90 1011.87 1011.84 1011.96 1012.14 1011.85 1011.56 1011.58 1011.89 1011.10 1010.21 1010.17 1009.75 1008.96 1008.31 1007.25 1006.88 1006.29 1005.35 1004.07 1003.50 1002.67 1002.48 1001.80 1001.75
1023.15 1023.64 1023.95 1024.38 1024.89 1025.24 1025.31 1025.37 1025.12 1024.94 1024.67 1024.59 1024.49 1024.27 1024.16 1024.06 1023.91 1023.40 1023.08 1022.24 1021.94 1021.73 1020.79 1019.22 1016.85 1013.94 1012.55 1012.17 1011.90 1011.70 1011.83 1011.93 1012.02 1011.67 1010.80 1010.80 1010.79 1011.29 1010.98 1010.19 1009.24 1009.60 1008.97 1007.98 1007.66 1007.25 1006.03 1005.29 1004.46 1003.65 1002.77 1001.85 1002.14 1001.39
1022.13 1022.99 1023.56 1023.98 1024.21 1024.45 1024.75 1024.80 1024.73 1024.63 1024.37 1024.15 1024.06 1023.92 1023.75 1023.60 1023.18 1022.86 1021.65 1021.47 1021.98 1021.85 1021.53 1020.49 1017.62 1014.83 1012.52 1012.58 1012.86 1012.84 1012.88 1012.64 1011.99 1011.39 1010.65 1010.43 1010.64 1010.90 1010.42 1009.96 1009.92 1009.58 1008.52 1007.68 1007.25 1006.65 1005.59 1005.07 1004.58 1004.34 1003.28 1001.84 1001.87 1001.11
1021.17 1022.06 1022.77 1023.34 1023.83 1023.91 1024.07 1024.15 1024.15 1024.14 1024.03 1023.76 1023.59 1023.34 1023.33 1023.01 1021.97 1021.45 1021.40 1021.39 1021.62 1021.89 1021.38 1020.63 1018.61 1015.16 1013.74 1013.62 1013.87 1014.17 1014.00 1013.36 1012.05 1011.12 1010.37 1010.11 1010.22 1011.03 1012.25 1012.03 1011.71 1011.23 1010.66 1009.79 1008.81 1007.44 1006.07 1004.48 1004.35 1004.81 1003.68 1003.39 1002.74 1000.83
1020.05 1021.16 1021.93 1022.66 1023.13 1023.42 1023.59 1023.56 1023.65 1023.56 1023.47 1023.38 1023.39 1022.68 1021.84 1021.10 1020.98 1021.40 1021.52 1021.55 1021.72 1021.85 1021.39 1020.33 1018.46 1016.46 1015.18 1014.54 1015.06 1015.87 1015.49 1015.01 1013.43 1011.69 1011.08 1009.95 1010.47 1011.39 1011.83 1012.05 1012.19 1011.66 1010.57 1009.95 1008.88 1007.66 1006.52 1005.20 1004.36 1004.44 1004.08 1004.02 1002.50 1000.71
1019.05 1020.13 1021.23 1022.11 1022.65 1022.99 1023.07 1023.36 1023.34 1023.19 1022.66 1022.91 1022.48 1021.83 1021.04 1021.05 1021.22 1020.85 1020.57 1020.65 1020.93 1020.99 1020.55 1019.17 1017.74 1016.13 1015.01 1015.40 1016.11 1017.01 1016.83 1016.26 1014.63 1012.44 1011.96 1011.03 1011.08 1011.22 1011.52 1011.66 1011.51 1010.89 1010.20 1009.64 1009.14 1008.01 1006.98 1005.67 1004.27 1003.45 1003.36 1003.23 1001.82 1000.19
1018.21 1019.36 1020.48 1021.37 1022.07 1022.46 1022.81 1023.14 1023.25 1023.26 1022.82 1023.10 1022.80 1021.88 1021.31 1020.79 1020.56 1020.43 1019.53 1018.90 1018.81 1018.02 1017.84 1017.13 1015.57 1015.17 1015.29 1015.71 1016.46 1017.55 1017.53 1017.03 1014.90 1013.63 1012.69 1011.37 1010.78 1011.23 1011.40 1011.10 1010.68 1009.95 1009.45 1008.66 1007.98 1007.08 1006.11 1004.95 1003.75 1003.05 1002.70 1002.73 1003.00 1002.17
1017.51 1018.82 1020.05 1020.86 1021.59 1022.07 1022.43 1022.69 1022.88 1023.11 1023.03 1022.30 1022.52 1021.49 1020.71 1020.11 1020.02 1018.99 1017.78 1016.77 1016.13 1015.60 1015.28 1015.02 1014.45 1013.81 1014.65 1015.52 1016.58 1017.29 1017.15 1016.05 1015.16 1013.87 1012.27 1010.58 1010.49 1010.76 1010.79 1010.57 1009.85 1009.12 1008.41 1007.80 1007.02 1006.59 1005.64 1004.24 1003.36 1002.37 1001.96 1001.66 1001.55 1001.54
1017.01 1018.23 1019.47 1020.48 1021.12 1021.66 1022.04 1022.28 1022.64 1022.95 1023.13 1022.28 1021.69 1020.90 1019.82 1018.31 1017.17 1016.04 1015.44 1014.45 1014.26 1013.97 1013.93 1013.77 1013.66 1013.47 1014.02 1015.30 1016.24 1016.73 1016.24 1015.66 1013.93 1012.30 1010.99 1010.19 1010.00 1009.93 1010.03 1009.85 1009.39 1008.54 1007.69 1006.90 1006.29 1005.79 1005.18 1004.10 1002.95 1001.66 1001.26 1001.05 1000.85 1000.39
1017.02 1018.02 1019.24 1020.18 1020.76 1021.28 1021.60 1022.01 1022.44 1022.63 1022.35 1021.57 1020.83 1019.47 1017.51 1016.09 1014.78 1014.12 1013.72 1013.49 1012.88 1012.87 1012.94 1012.92 1013.01 1013.15 1013.76 1015.16 1016.03 1016.04 1015.33 1013.86 1012.38 1010.85 1010.18 1009.44 1009.23 1009.31 1009.40 1009.12 1008.65 1007.84 1006.94 1006.12 1005.61 1005.23 1004.09 1003.27 1002.90 1001.53 1000.52 1000.25 999.65 998.87
1017.24 1018.53 1019.07 1019.71 1020.34 1020.73 1021.29 1021.92 1022.34 1022.24 1021.53 1020.55 1019.37 1017.74 1015.95 1015.12 1013.87 1013.01 1012.17 1012.04 1012.24 1012.15 1012.13 1012.51 1012.81 1013.17 1013.44 1014.32 1014.59 1013.98 1013.12 1011.72 1010.62 1010.29 1009.74 1009.22 1008.87 1008.57 1008.48 1008.03 1007.56 1006.82 1005.97 1005.05 1004.39 1004.27 1003.41 1002.41 1002.01 1000.94 1000.00 998.98 997.98 996.94
1017.13 1017.49 1018.17 1019.02 1019.71 1020.51 1021.15 1021.58 1021.72 1021.47 1020.30 1018.61 1017.22 1016.20 1015.47 1014.63 1013.31 1012.21 1011.49 1011.20 1010.98 1011.43 1011.86 1012.43 1012.89 1012.75 1012.68 1012.66 1012.13 1011.35 1011.05 1010.47 1009.84 1009.28 1008.92 1008.68 1008.16 1007.92 1007.56 1007.09 1006.53 1005.63 1004.55 1003.63 1002.90 1002.50 1001.91 1001.12 1000.43 1000.03 999.25 997.93 997.12 995.66
1016.38 1016.72 1017.42 1018.35 1019.42 1020.42 1021.16 1021.29 1020.73 1019.90 1018.74 1017.32 1016.45 1015.02 1014.31 1013.15 1012.44 1011.68 1011.07 1011.09 1011.39 1011.64 1012.01 1012.46 1012.50 1012.34 1012.20 1011.17 1010.51 1010.09 1009.69 1009.27 1008.72 1008.49 1008.27 1007.76 1007.38 1007.13 1006.77 1006.34 1005.57 1004.58 1003.40 1002.39 1001.55 1000.83 1000.33 999.70 999.11 997.76 997.08 996.71 996.29 995.30
1015.59 1016.28 1017.18 1018.20 1018.76 1019.11 1019.87 1019.96 1019.47 1018.28 1016.80 1016.04 1014.98 1013.98 1013.20 1012.27 1011.18 1010.91 1011.05 1011.04 1011.21 1011.59 1012.22 1012.35 1012.13 1011.33 1010.84 1010.38 1010.06 1009.63 1009.20 1008.64 1008.18 1007.91 1007.55 1006.98 1006.51 1006.18 1005.78 1005.35 1004.63 1003.54 1002.36 1001.26 1000.35 999.70 999.06 998.02 996.80 995.67 995.83 995.97 996.13 995.88
1016.22 1016.83 1017.55 1018.12 1018.57 1018.69 1018.66 1018.44 1018.16 1017.47 1016.00 1014.35 1013.72 1012.94 1012.13 1011.35 1010.99 1010.88 1010.83 1010.92 1011.15 1011.78 1011.98 1011.64 1010.98 1010.56 1010.17 1009.71 1009.39 1009.11 1008.82 1008.46 1007.98 1007.39 1006.90 1006.43 1005.99 1005.56 1005.08 1004.53 1003.48 1002.38 1001.30 1000.36 999.38 998.75 998.38 997.70 996.61 995.32 994.83 995.58 995.89 995.52
1016.79 1017.56 1018.27 1018.74 1018.92 1018.49 1017.96 1017.00 1016.79 1016.10 1015.12 1014.02 1012.73 1011.98 1011.43 1011.12 1010.92 1010.61 1010.45 1010.65 1011.07 1011.18 1010.86 1010.47 1010.21 1009.96 1009.50 1009.16 1008.89 1008.63 1008.35 1008.03 1007.83 1007.51 1006.66 1005.85 1005.34 1004.82 1004.21 1003.54 1002.93 1001.67 1000.53 999.55 998.71 997.94 997.68 996.61 995.65 995.28 995.60 995.57 995.17 995.12
1016.83 1017.40 1018.06 1018.70 1018.45 1017.86 1017.14 1016.29 1016.00 1015.17 1014.70 1013.52 1012.63 1011.72 1011.22 1010.88 1010.50 1010.50 1010.41 1010.27 1010.19 1010.24 1010.29 1010.25 1009.97 1009.81 1009.50 1009.13 1008.64 1008.16 1007.73 1007.35 1006.96 1006.55 1005.95 1005.58 1004.98 1004.28 1003.52 1002.80 1001.97 1000.86 1000.15 999.21 998.60 997.76 996.27 995.61 995.27 994.65 994.00 993.16 993.22 994.18
1016.83 1017.06 1017.37 1017.60 1017.65 1017.07 1016.46 1015.54 1015.29 1014.62 1013.95 1012.83 1011.99 1011.52 1010.82 1010.51 1010.47 1010.37 1010.15 1009.85 1009.83 1009.68 1009.67 1009.80 1009.50 1009.15 1008.81 1008.32 1007.90 1007.41 1007.01 1006.74 1006.49 1006.01 1005.70 1005.23 1004.58 1003.90 1003.16 1002.24 1001.49 1000.49 999.67 998.61 998.33 997.82 996.75 996.08 995.40 995.12 994.48 993.93 993.56 993.92
1016.38 1016.64 1016.56 1016.29 1016.27 1015.98 1015.00 1014.51 1014.39 1013.85 1013.21 1012.67 1012.06 1011.20 1010.58 1010.46 1010.39 1010.27 1010.24 1010.10 1009.90 1009.74 1009.70 1009.44 1009.11 1008.76 1008.23 1007.80 1007.60 1007.15 1006.68 1006.39 1006.03 1005.68 1005.23 1004.89 1004.10 1003.28 1002.63 1001.94 1000.82 999.72 999.32 998.59 998.03 997.13 996.46 995.88 995.31 995.32 995.49 995.33 994.99 995.52
1016.60 1016.20 1015.86 1015.54 1015.16 1014.83 1013.98 1013.41 1013.12 1012.76 1012.20 1011.76 1011.51 1010.89 1010.37 1010.30 1010.21 1010.10 1009.84 1009.54 1009.54 1009.55 1009.30 1009.05 1008.84 1008.50 1008.14 1007.69 1007.37 1006.77 1006.32 1006.21 1005.99 1005.44 1004.81 1004.43 1003.80 1002.83 1001.76 1001.23 1000.44 999.54 998.38 997.85 997.21 996.52 995.60 994.90 994.27 994.93 995.44 996.40 997.12 997.02
1015.65 1014.93 1014.68 1013.78 1013.45 1013.18 1012.09 1011.53 1011.46 1011.29 1011.24 1011.17 1010.83 1010.10 1009.96 1009.91 1009.71 1009.60 1009.32 1009.19 1009.08 1008.92 1008.80 1009.01 1009.17 1008.68 1007.99 1007.66 1007.39 1006.82 1006.50 1005.96 1005.56 1005.08 1004.47 1004.20 1003.91 1003.23 1002.16 1000.90 999.56 998.18 997.59 996.89 996.16 995.16 994.47 994.10 993.42 993.01 994.80 995.99 996.92 997.10
1014.49 1013.09 1012.57 1012.30 1011.57 1011.15 1010.79 1010.41 1010.41 1010.42 1010.40 1010.32 1010.07 1009.67 1009.36 1009.12 1008.81 1008.71 1008.58 1008.44 1008.30 1008.08 1008.01 1008.41 1008.56 1008.45 1008.20 1007.71 1007.35 1007.06 1006.71 1006.13 1005.71 1005.02 1004.50 1004.26 1003.99 1003.39 1002.37 1001.24 1000.03 999.09 998.27 997.17 995.93 994.59 994.13 993.25 992.75 993.99 994.92 995.23 996.33 996.76
1012.78 1011.26 1010.86 1010.74 1010.46 1010.14 1010.07 1009.94 1009.92 1009.76 1009.62 1009.34 1009.13 1008.84 1008.52 1008.12 1007.92 1007.38 1007.13 1007.38 1007.40 1007.33 1007.38 1007.78 1008.26 1008.25 1007.84 1007.60 1007.51 1007.15 1006.70 1005.98 1005.54 1005.20 1004.75 1004.54 1004.18 1003.57 1002.63 1001.68 1000.62 1000.08 998.68 997.62 996.61 995.30 994.48 994.28 994.50 995.41 996.03 996.72 996.84 998.89
1011.21 1010.05 1009.93 1009.83 1009.50 1009.54 1009.42 1009.29 1009.24 1008.96 1008.53 1008.38 1008.57 1008.16 1007.76 1007.05 1006.55 1006.70 1006.85 1006.96 1006.86 1007.12 1007.27 1007.55 1007.71 1007.69 1007.65 1007.46 1007.57 1007.47 1007.06 1006.43 1006.05 1005.93 1005.73 1005.28 1004.77 1003.96 1003.25 1002.38 1001.50 1000.76 999.94 999.00 998.20 997.55 997.24 996.42 997.34 996.96 999.03 1000.05 1000.36 1001.11
1009.40 1008.86 1008.92 1008.91 1008.94 1008.84 1008.63 1008.38 1007.99 1008.01 1007.95 1007.88 1007.76 1007.03 1006.75 1006.29 1006.06 1006.71 1006.96 1006.82 1007.02 1007.12 1007.24 1007.23 1007.18 1007.28 1007.29 1007.38 1007.48 1007.65 1007.48 1007.13 1007.07 1006.97 1006.68 1006.40 1006.01 1005.30 1004.06 1003.20 1002.58 1001.87 1001.38 1001.16 1000.58 1000.18 999.90 1000.03 1000.53 999.65 1000.46 1001.11 1001.53 1001.32
1008.07 1007.96 1008.17 1008.14 1008.14 1008.02 1007.67 1007.35 1007.25 1006.97 1006.74 1006.65 1006.54 1006.40 1006.22 1006.33 1006.38 1006.39 1006.75 1006.92 1007.13 1007.41 1007.35 1007.21 1007.11 1007.10 1007.04 1007.13 1007.10 1007.13 1007.42 1007.52 1007.46 1007.30 1007.27 1006.94 1006.72 1006.26 1005.33 1004.61 1003.92 1003.35 1002.94 1002.65 1002.39 1002.26 1001.87 1001.72 1001.87 1001.61 1001.24 1001.99 1002.42 1002.60
1007.66 1007.50 1007.30 1007.35 1007.35 1007.50 1007.30 1007.22 1007.31 1006.98 1006.73 1006.28 1006.09 1006.05 1006.21 1006.21 1006.49 1006.82 1007.16 1007.04 1007.32 1007.41 1007.42 1007.32 1007.08 1006.72 1006.62 1006.71 1006.72 1007.04 1007.04 1007.20 1007.66 1007.69 1007.61 1007.55 1007.28 1006.93 1006.42 1005.67 1005.23 1004.85 1004.26 1004.02 1003.60 1003.73 1003.71 1003.36 1003.53 1003.17 1003.10 1003.09 1003.51 1003.66
1006.86 1006.84 1006.99 1007.19 1007.12 1007.43 1007.24 1007.24 1007.20 1007.09 1006.82 1006.66 1006.74 1006.81 1006.73 1007.07 1007.39 1007.62 1007.51 1007.38 1007.33 1007.25 1007.33 1007.24 1006.78 1006.40 1006.40 1006.39 1006.61 1006.50 1006.87 1007.07 1007.44 1007.66 1007.64 1007.64 1007.51 1007.16 1007.04 1006.84 1006.40 1006.03 1005.75 1005.84 1005.93 1005.85 1005.88 1005.57 1005.90 1004.99 1004.67 1004.73 1004.83 1005.02
Wind_Speed
12 11 11 11 10 10 12 12 14 15 16 17 17 18 19 21 20 12 7 8 5 4 12 7 10 11 11 6 4 11 8 10 5 8 4 5 4 5 6 7 8 7 6 7 3 1 6 3 8 7 11 11 5 7
13 12 11 11 10 10 11 12 12 14 15 15 15 15 16 17 17 14 5 9 9 7 9 18 23 22 18 15 8 3 7 7 4 4 5 5 8 5 7 5 10 2 7 6 8 6 16 20 10 15 20 23 8 4
13 13 12 11 10 10 9 10 11 13 14 15 15 14 14 14 14 11 6 8 9 4 9 3 5 14 7 8 10 3 3 4 3 2 2 3 4 5 5 6 10 9 12 7 15 15 21 11 20 20 20 20 16 10
15 14 13 11 10 10 9 10 10 12 13 14 14 14 14 15 15 12 5 7 7 6 4 6 14 12 17 13 13 10 10 10 8 2 3 4 6 5 6 9 12 8 14 12 15 10 21 20 27 23 23 17 20 26
17 15 13 12 11 11 10 10 10 11 13 14 13 13 14 15 16 11 7 8 7 5 5 9 20 12 14 9 10 7 6 8 3 4 6 8 8 9 10 12 11 7 11 10 14 15 7 22 28 26 25 15 16 21
18 16 14 12 11 12 11 10 11 12 13 13 13 12 13 13 14 6 0 5 7 6 4 6 8 7 12 8 5 7 6 6 5 5 5 6 8 7 7 9 11 12 17 18 17 14 17 21 24 21 22 16 21 24
18 16 15 13 12 11 10 11 10 12 12 13 12 12 11 9 6 4 4 3 9 5 3 6 6 7 5 9 7 3 7 5 6 5 7 10 8 8 11 16 18 11 17 21 21 20 22 22 20 23 22 20 25 11
19 17 16 13 11 11 11 11 11 11 13 12 12 12 12 10 11 6 2 12 4 4 0 4 6 6 8 4 4 6 6 4 4 5 3 9 6 5 11 11 13 15 16 17 18 17 20 22 20 20 23 20 26 22
21 19 17 14 13 11 11 10 10 11 12 11 12 15 5 4 3 2 3 5 3 2 2 3 4 4 6 4 4 5 3 4 4 4 5 4 5 4 7 12 15 17 14 15 19 18 20 19 18 14 18 19 21 25
23 20 19 16 14 13 11 8 9 11 11 10 5 4 3 2 10 7 1 2 1 1 2 4 6 6 6 4 3 3 3 4 4 1 4 4 3 4 4 8 10 16 17 17 16 17 19 18 18 14 13 14 20 22
25 22 19 17 15 12 8 8 8 9 8 3 4 1 2 8 2 4 3 4 4 4 4 5 7 7 4 1 1 1 3 4 5 1 4 2 3 3 1 6 10 14 15 15 13 18 19 18 19 12 13 12 19 25
25 21 19 18 15 12 9 7 6 2 1 4 4 4 3 4 3 3 4 4 6 5 7 5 6 7 3 3 2 3 2 3 7 6 4 4 3 5 6 8 13 15 16 17 16 16 20 20 19 16 12 10 12 17
24 22 19 17 15 11 9 9 6 7 9 3 2 3 2 3 3 6 6 5 4 4 4 5 5 3 4 2 2 1 5 6 6 4 4 4 3 6 7 8 13 16 16 18 18 16 19 19 19 18 14 14 20 8
25 23 20 17 15 12 11 8 6 4 3 3 3 5 6 7 7 7 8 4 5 5 5 6 6 3 4 4 2 4 4 3 5 5 5 3 5 6 6 9 12 18 17 19 18 16 16 16 17 19 13 15 16 14
23 22 19 16 15 14 10 8 8 4 3 4 5 6 9 9 7 8 11 8 4 5 5 4 4 3 2 4 3 3 5 6 6 3 4 7 5 5 7 10 12 15 15 17 16 14 17 16 15 16 10 18 8 9
23 17 8 15 17 12 10 7 5 3 3 4 7 7 8 8 11 9 6 5 6 5 4 2 1 3 4 4 7 8 5 5 4 6 9 7 6 6 8 10 13 15 16 16 15 13 16 16 13 18 15 16 7 8
18 3 18 18 16 13 12 5 4 5 6 5 6 7 11 11 9 8 4 3 0 1 0 1 3 6 2 5 5 4 4 5 8 8 7 10 13 8 9 12 14 17 18 18 16 16 15 16 15 15 16 8 8 8
3 8 23 20 14 9 3 3 3 5 8 6 6 8 9 9 11 10 2 4 4 3 1 3 2 6 6 7 9 10 9 10 9 10 6 11 13 7 9 12 17 18 19 18 16 15 14 15 15 12 10 6 6 7
6 9 22 23 11 5 6 6 5 4 7 6 9 10 10 9 3 2 3 1 2 2 2 2 5 5 9 9 7 8 9 9 10 9 10 13 10 11 10 13 14 17 19 17 15 10 10 13 10 11 6 6 6 4
9 19 22 22 7 3 5 4 3 4 5 3 6 10 10 5 2 4 4 3 3 2 4 5 6 9 10 11 7 8 10 10 10 11 13 10 9 11 11 12 13 16 14 14 12 10 9 10 7 9 5 5 6 6
11 7 10 7 2 3 3 2 4 4 5 5 8 6 3 3 6 7 6 4 5 4 5 7 10 9 11 9 8 9 11 10 9 10 12 12 9 10 9 11 13 13 11 11 10 8 10 10 6 6 6 7 7 6
5 13 4 5 3 3 4 5 4 3 3 6 7 5 5 6 6 1 3 6 7 5 3 3 5 8 9 10 10 12 11 11 11 10 9 10 10 11 10 10 12 11 10 10 7 8 6 8 8 9 10 13 7 5
11 4 3 6 6 4 6 3 4 3 4 3 3 3 3 2 2 2 3 1 2 2 2 5 8 9 10 12 11 11 10 9 8 7 8 7 8 9 10 11 11 11 10 9 5 7 7 7 8 7 10 11 11 9
1 4 5 6 6 4 4 4 3 4 3 3 3 4 3 1 2 1 3 2 4 3 5 7 5 6 7 8 6 7 7 6 6 6 6 8 9 9 10 11 12 12 8 7 5 6 7 8 8 7 8 7 8 8
3 4 4 2 3 4 5 5 6 6 3 3 4 5 2 1 2 2 2 2 3 5 5 5 5 6 6 7 6 6 5 4 5 7 8 6 9 9 11 10 10 8 6 6 5 4 4 4 6 4 6 8 8 1
2 5 6 8 6 7 6 3 8 7 5 3 4 3 2 2 2 3 2 1 3 4 4 4 6 8 7 6 7 7 7 7 7 7 8 6 8 9 10 12 12 10 10 9 8 6 2 4 4 4 10 13 13 13
4 6 6 5 4 4 3 4 3 3 3 4 3 3 3 2 4 2 3 3 3 4 2 6 5 4 5 6 5 4 7 7 6 8 7 6 6 8 9 10 12 12 10 11 9 8 6 4 6 8 8 10 11 16
5 5 9 10 9 5 4 2 2 3 3 3 2 3 2 2 1 3 3 4 2 2 1 3 3 3 4 3 3 5 7 8 6 7 5 5 5 7 12 9 9 17 11 15 15 5 5 12 12 13 13 13 15 12
6 7 6 6 4 4 5 4 4 4 5 2 2 2 2 4 3 3 3 3 2 5 5 4 3 2 3 4 4 4 5 7 10 13 14 10 10 10 11 10 9 10 10 13 20 20 15 16 16 14 13 11 9 10
12 8 5 5 4 4 6 6 4 4 6 5 9 5 5 6 4 5 3 4 5 5 4 1 1 3 5 3 2 4 5 7 6 5 7 9 9 10 10 11 10 11 11 12 15 15 17 11 9 16 14 11 11 15
4 5 4 6 7 8 8 6 6 9 7 8 7 7 4 2 4 5 5 4 4 4 4 5 4 3 3 3 4 4 4 4 4 3 4 4 5 8 11 10 10 9 10 11 13 15 13 12 10 13 19 18 17 17
5 8 6 7 4 5 10 5 4 6 8 5 4 1 3 4 4 3 4 3 3 1 3 3 6 2 1 0 2 2 5 0 6 4 6 4 5 6 8 8 9 9 9 10 12 14 16 17 14 15 15 19 19 20
4 4 7 4 2 2 3 4 3 4 5 4 5 5 4 2 1 1 0 2 3 1 4 5 6 3 3 3 6 5 2 4 7 8 4 3 3 6 6 6 8 11 11 9 10 12 13 16 13 14 16 17 18 18
Wind_Direction
258 265 273 284 296 309 317 326 331 337 338 344 350 353 351 351 356 355 290 347 7 301 288 262 335 316 314 315 315 342 334 20 317 1 339 347 326 3 297 342 290 276 276 286 294 245 303 43 4 30 321 325 194 162
247 255 262 274 281 293 306 315 323 328 330 336 342 347 347 345 350 351 309 338 319 279 269 294 284 271 251 259 277 282 298 334 296 2 8 339 317 285 329 308 319 56 70 285 18 299 348 341 28 27 4 345 269 128
231 244 251 260 272 281 292 304 313 318 323 328 332 338 340 337 340 352 305 304 313 289 295 270 67 12 198 225 212 205 282 258 281 290 323 288 265 343 307 313 320 320 13 318 338 345 336 349 0 7 354 354 347 329
219 232 245 251 262 270 281 291 299 310 315 319 324 331 334 330 330 333 308 296 290 301 281 292 357 334 312 290 276 262 270 287 279 274 258 262 273 240 268 294 291 295 327 306 300 330 335 341 342 339 340 325 347 337
216 217 229 243 257 266 271 281 291 299 308 311 316 325 329 326 324 309 267 267 280 317 303 303 297 287 307 274 250 274 270 269 226 246 250 258 267 282 277 278 274 285 287 297 294 316 315 312 314 317 322 313 339 326
215 212 214 226 246 258 263 269 280 293 298 301 308 318 321 324 330 306 198 58 12 348 324 311 338 284 308 288 282 267 259 261 239 225 229 224 240 252 268 269 282 279 287 288 289 301 310 297 301 315 320 324 323 313
209 210 207 213 232 247 257 263 275 286 289 295 302 308 308 312 312 272 325 314 336 316 277 299 292 285 310 251 274 306 353 338 324 293 246 251 239 213 248 261 279 268 283 290 294 298 294 300 304 316 317 320 326 301
198 205 209 214 219 233 250 264 277 283 285 292 301 303 297 292 273 266 262 237 218 270 310 283 276 268 30 29 355 6 323 307 255 250 256 262 273 275 265 283 333 329 287 279 285 280 272 286 295 308 307 325 317 312
192 194 198 205 219 224 238 260 273 281 286 300 306 291 284 199 245 77 144 128 192 320 267 234 274 311 5 354 15 359 323 296 286 248 245 247 210 211 11 352 343 327 316 314 329 311 324 279 285 286 293 308 306 300
184 187 193 200 209 218 233 247 268 285 295 307 288 224 220 188 114 124 198 158 159 342 256 257 267 269 294 352 72 351 352 293 293 315 275 236 92 166 32 4 340 317 310 325 326 319 317 315 302 295 306 298 299 302
178 179 189 198 202 212 219 240 269 310 301 181 227 6 357 135 228 213 233 200 148 215 209 237 249 258 321 336 101 131 323 297 281 348 319 313 269 209 13 308 324 317 301 305 294 289 291 298 308 281 272 309 309 304
174 175 181 188 192 202 204 235 258 282 15 311 295 266 251 217 207 232 223 210 195 228 179 226 231 206 192 133 167 136 247 255 257 346 281 247 206 223 268 318 317 328 299 297 290 295 297 295 294 297 299 292 288 274
165 169 176 177 187 185 201 220 233 272 305 266 227 252 204 222 232 222 218 205 218 185 205 209 260 261 104 95 120 185 241 241 317 238 249 268 176 232 264 285 303 306 296 300 298 293 290 286 286 288 291 297 302 205
163 164 166 175 178 185 207 209 212 231 236 242 230 247 223 203 223 194 221 214 205 202 225 242 267 276 128 150 87 240 237 245 254 240 231 286 274 262 253 273 291 298 300 303 294 291 283 281 282 287 289 288 286 234
159 154 162 175 181 195 192 192 191 198 257 232 207 237 230 244 262 236 216 240 217 225 263 265 266 269 135 136 192 248 236 237 229 271 294 308 311 235 261 284 293 298 295 294 291 283 275 269 266 277 270 274 261 244
146 144 174 173 191 177 171 170 167 229 241 235 231 253 267 270 260 258 251 186 251 219 210 188 320 278 206 193 199 214 237 247 291 317 308 331 311 264 274 291 287 289 286 288 283 274 273 270 264 266 275 252 247 264
152 149 169 181 171 163 174 183 178 220 243 229 239 232 259 282 275 277 264 255 165 186 205 106 224 237 253 224 220 214 224 234 277 307 316 317 317 308 303 305 300 297 294 288 283 283 274 266 258 255 248 219 232 257
125 168 169 161 152 141 156 226 234 222 236 244 254 255 257 251 248 260 326 45 35 8 93 226 283 251 265 275 290 303 314 317 308 300 303 298 310 313 299 300 308 303 295 289 282 281 273 257 256 244 228 198 226 246
135 139 148 153 162 162 166 199 221 258 242 249 249 254 259 269 265 1 326 303 167 175 162 211 242 242 244 252 270 291 298 304 308 313 306 307 304 301 296 297 296 297 294 295 290 281 275 269 267 257 208 196 222 263
113 143 155 171 180 197 200 202 196 250 267 263 255 253 259 267 251 266 256 261 155 151 196 234 246 259 270 275 287 314 309 307 310 313 306 306 303 298 291 290 292 294 293 294 278 260 261 265 251 250 247 197 211 230
116 139 136 147 222 240 279 223 213 247 262 264 285 291 270 301 278 261 247 233 184 212 239 239 254 262 267 280 291 298 295 298 300 291 298 303 308 303 291 290 296 296 300 298 287 271 221 240 264 243 218 243 221 180
103 164 116 198 226 254 250 219 239 271 246 274 303 278 262 254 269 237 267 247 250 258 261 273 284 284 290 288 283 278 278 291 292 296 300 308 312 311 312 306 300 296 300 296 297 291 270 224 247 246 242 245 237 248
147 158 167 178 216 200 257 233 217 229 248 285 283 288 248 238 179 238 261 286 270 188 298 291 276 270 273 276 282 294 298 306 300 310 310 308 302 302 307 309 301 305 304 307 315 289 293 296 299 224 235 261 262 265
79 184 199 193 185 235 240 191 213 262 244 236 261 261 254 166 232 241 274 262 253 305 307 305 314 304 305 304 301 297 301 301 307 310 309 308 307 311 312 308 310 306 295 285 277 249 240 252 234 185 184 225 261 269
131 264 131 269 224 236 227 205 206 209 243 219 232 264 212 203 213 235 268 277 281 293 290 296 308 311 313 309 316 311 323 335 325 306 303 295 303 308 312 310 297 288 300 327 322 286 237 255 85 77 205 119 96 349
194 216 185 198 193 213 224 202 193 205 221 226 252 279 158 216 213 235 243 350 251 271 302 23 0 342 333 344 336 327 330 321 302 298 304 321 322 318 315 316 322 335 346 334 317 331 179 234 325 320 111 110 104 75
235 235 188 228 259 240 247 244 183 238 179 227 235 240 216 225 232 219 192 234 236 255 203 134 197 267 297 332 337 339 331 314 290 284 291 307 332 326 325 329 335 332 323 335 327 309 226 149 70 48 63 100 99 78
254 271 223 203 221 212 234 209 256 243 228 231 234 239 253 279 262 247 161 179 262 322 327 144 200 254 315 331 325 349 338 335 356 360 343 0 353 347 345 343 337 339 348 10 356 11 81 74 52 51 46 78 84 96
241 239 209 243 218 219 206 214 219 229 237 210 213 249 232 250 226 211 98 123 113 36 17 57 16 335 331 353 20 3 354 360 5 9 14 6 353 352 346 348 352 359 14 19 5 18 36 82 96 81 74 79 90 116
241 229 194 209 221 228 236 234 235 254 267 205 244 253 246 264 96 59 83 66 50 31 9 356 61 15 30 19 21 56 17 37 26 18 10 9 355 334 345 2 11 16 26 34 26 21 24 75 104 107 98 94 96 91
226 179 205 217 223 236 238 258 285 273 248 248 237 260 286 342 131 98 81 61 68 52 1 357 34 31 5 23 23 31 46 76 90 21 352 341 350 1 356 8 13 24 33 38 48 32 42 55 68 90 93 91 86 88
171 234 222 234 254 207 227 217 304 279 274 283 295 10 335 1 41 47 63 63 96 72 294 295 312 234 211 314 107 124 223 266 108 63 27 15 8 25 16 4 18 17 33 48 52 53 34 38 45 55 74 86 85 83
202 217 240 237 286 111 322 357 300 317 306 316 325 344 343 4 331 49 39 322 307 246 231 268 282 292 85 65 27 19 254 90 115 120 102 58 45 52 44 26 20 32 56 71 72 74 66 65 60 49 49 62 75 79